Location: Lewisville
(33.0462°N, 96.9942°W)
Time: 08:15:09
(UTC-06:00)

Envisat - Pass Details

Date: 20 February 2021
Orbit: 764 x 766 km, 98.2° (Epoch: 26 November)

Event Time Altitude Azimuth Distance (km) Brightness Sun altitude
Rises 05:50:07 0° 16° (NNE) 3,235 6.4 -16.6°
Reaches altitude 10° 05:52:27 10° 19° (NNE) 2,305 5.7 -16.1°
Maximum altitude 05:57:29 64° 101° (E) 844 3.5 -15.0°
Drops below altitude 10° 06:02:30 10° 183° (S) 2,290 5.5 -14.0°
Sets 06:04:48 0° 186° (S) 3,212 6.2 -13.5°
